Location: Sevilla
(37.3933°N, 5.9839°W)
Time: 04:39:17
(UTC+02:00)

Transit 2A Rocket - Pass Details

Date: 01 July 2024
Orbit: 582 x 910 km, 66.7° (Epoch: 15 July)

Event Time Altitude Azimuth Distance (km) Brightness Sun altitude
Rises 03:34:08 0° 347° (NNW) 3,519 9.3 -27.5°
Reaches altitude 10° 03:38:24 10° 16° (NNE) 2,598 8.7 -27.3°
Maximum altitude 03:40:55 13° 40° (NE) 2,415 8.4 -27.1°
Drops below altitude 10° 03:43:26 10° 65° (ENE) 2,594 8.3 -27.0°
Sets 03:47:40 0° 93° (E) 3,507 8.6 -26.7°
